Regional Weather Roundup
Issued by NWS

Home | Current Version | Previous Version | Graphics & Text | Print | Product List | Glossary On
Versions: 1 2 3 4 5 6 7 8 9 10 11 12 13 14 15 16 17 18 19 20 21 22 23 24 25 26 27 28 29 30 31 32 33 34 35 36 37 38 39 40 41 42 43 44 45 46 47 48 49 50
006
ASUS45 KBOI 221110
RWRID

IDAHO REGIONAL WEATHER ROUNDUP
NATIONAL WEATHER SERVICE BOISE ID
500 AM MDT SUN APR 22 2018

NOTE: "FAIR" INDICATES FEW OR NO CLOUDS BELOW 12000 FEET
WITH NO SIGNIFICANT WEATHER AND/OR OBSTRUCTIONS TO VISIBILITY

IDZ012-014-221200-
SOUTHWEST IDAHO


CITY           SKY/WX    TMP DP  RH WIND       PRES   REMARKS
BOISE          PTCLDY    43  24  47 W5        30.14S
CALDWELL       CLEAR     42  25  50 W12       30.16S
MOUNTAIN HOME  CLEAR     35  26  69 W8        30.13S WCI  29
$$

IDZ016-017-221200-
SOUTHCENTRAL IDAHO


CITY           SKY/WX    TMP DP  RH WIND       PRES   REMARKS
BURLEY         CLEAR     38  31  76 CALM      30.12S
JEROME         CLEAR     45  32  60 S7        30.14S
TWIN FALLS     CLEAR     42  33  70 SW9       30.15R
$$

IDZ019>023-221200-
SOUTHEAST IDAHO


CITY           SKY/WX    TMP DP  RH WIND       PRES   REMARKS
IDAHO FALLS    CLEAR     45  32  60 S8        30.15R
POCATELLO      CLEAR     40  28  62 CALM      30.14S
REXBURG        CLEAR     45  28  51 SW7       30.13R
$$

IDZ006-010-011-018-031-032-221200-
CENTRAL IDAHO MOUNTAINS


CITY           SKY/WX    TMP DP  RH WIND       PRES   REMARKS
MCCALL         CLEAR     31  26  82 N5        30.16S WCI  26
HAILEY         PTCLDY    37  27  65 NW10      30.18S WCI  30
STANLEY          N/A     26  21  81 CALM      30.20F
SALMON         PTCLDY    36  30  79 CALM      30.17R
CHALLIS        CLEAR     35  21  56 CALM      30.15S
$$

IDZ002-004-006-007-026-221200-
NORTHERN IDAHO


CITY           SKY/WX    TMP DP  RH WIND       PRES   REMARKS
LEWISTON       CLEAR     39  28  64 SW3       30.28R
LOWELL           N/A     36  33  89 N3        30.32R
COEUR D`ALENE  NOT AVBL
MULLAN PASS    CLEAR     28  16  60 VRB7      30.15F WCI  21
$$




USA.gov is the U.S. government's official web portal to all federal, state and local government web resources and services.